Regional Weather Roundup
Issued by NWS State College, PA

Home | Current Version | Previous Version | Text Only | Print | Product List | Glossary On
Versions: 1 2 3 4 5 6 7 8 9 10 11 12 13 14 15 16 17 18 19 20 21 22 23 24 25 26 27 28 29 30 31 32 33 34 35 36 37 38 39 40 41 42 43 44 45 46 47 48 49 50
000
ASUS41 KCTP 231310
RWRCTP

REGIONAL WEATHER ROUNDUP
NATIONAL WEATHER SERVICE STATE COLLEGE PA
800 AM EST SUN NOV 23 2014

Note: "fair" indicates few or no clouds below 12,000 feet with no
significant weather and/or obstructions to visibility.

* = STATION THAT DOES NOT REPORT PRECIPITATION /E.G. RAIN...SNOW...ETC/
    THUNDER OR FOG.

PAZ002>004-007>009-013>016-020>023-029>032-231400-
WESTERN PENNSYLVANIA

CITY           SKY/WX    TMP DP  RH WIND       PRES   REMARKS
ERIE           LGT RAIN  46  37  71 S17       30.04R
MEADVILLE      LGT RAIN  41  36  82 S9        30.05F
FRANKLIN*      CLOUDY    43  36  75 SW14      30.09S
NEW CASTLE     LGT RAIN  41  39  92 CALM      30.08F
BEAVER COUNTY  NOT AVBL
BUTLER*        CLOUDY    45  30  57 CALM      30.11S
PITTSBURGH INT CLOUDY    45  30  55 SE5       30.08F
PITTSBURGH     MOCLDY    48  21  34 S10       30.09S
INDIANA*       CLOUDY    46  30  53 CALM      30.14F
LATROBE        MOCLDY    43  30  61 S3        30.13S
WASHINGTON CO* PTCLDY    41  27  56 SW3       30.10F
$$

PAZ004>006-010>012-017>019-024>028-033>037-041-042-045-046-049>053-231400-
CENTRAL PENNSYLVANIA

CITY           SKY/WX    TMP DP  RH WIND       PRES   REMARKS
BRADFORD       CLOUDY    42  31  64 S5        30.08R
DUBOIS         CLOUDY    45  34  65 S3        30.09S
CLEARFIELD     CLOUDY    37  35  92 CALM      30.12S
JOHNSTOWN      MOCLDY    48  27  44 SW6       30.11S
ALTOONA        MOCLDY    43  30  60 CALM      30.13R
STATE COLLEGE  MOCLDY    32  28  86 CALM      30.15R
WILLIAMSPORT   CLOUDY    34  29  82 SW3       30.18S HAZE
SELINSGROVE    CLOUDY    36  26  67 CALM      30.19R
FT INDIANTOWN  CLOUDY    34  26  72 N2        30.22R
CAPITAL CITY   CLOUDY    36  25  64 CALM      30.23R
HARRISBURG     MOCLDY    34  25  69 E3        30.22R
YORK           CLOUDY    35  24  64 CALM      30.21R
$$

PAZ038>040-043-044-047-048-054-055-060>062-067>071-231400-
EASTERN PENNSYLVANIA

CITY           SKY/WX    TMP DP  RH WIND       PRES   REMARKS
SCRANTON       MOCLDY    42  19  39 SW3       30.15R
MOUNT POCONO   CLOUDY    41  19  41 W8        30.14R
ALLENTOWN      MOCLDY    38  26  62 CALM      30.20F
QUAKERTOWN*    PTSUNNY   39  23  52 CALM      30.20F
READING        PTCLDY    40  26  57 CALM      30.21S
LANCASTER      PTCLDY    35  26  69 CALM      30.22R
COATESVILLE    MOSUNNY   37  23  56 S5        30.22R
POTTSTOWN      MOCLDY    39  23  52 CALM      30.22R
BLUE BELL      CLOUDY    41  28  60 CALM      30.22R
DOYLESTOWN     CLOUDY    39  25  57 CALM      30.20R
WILLOW GROVE   NOT AVBL
NORTH PHILA    MOCLDY    43  23  45 SW5       30.25R
PHILADELPHIA   MOCLDY    43  24  47 S8        30.25R
$$


USA.gov is the U.S. government's official web portal to all federal, state and local government web resources and services.